TimePST,TemperatureF,Dew PointF,Humidity,Sea Level PressureIn,VisibilityMPH,Wind Direction,Wind SpeedMPH,Gust SpeedMPH,PrecipitationIn,Events,Conditions,WindDirDegrees,DateUTC
12:56 AM,39.0,26.1,60,30.06,-9999.0,South,3.5,-,N/A,,Clear,190,2012-11-15 08:56:00
1:56 AM,37.0,25.0,62,30.06,-9999.0,Calm,Calm,-,N/A,,Clear,0,2012-11-15 09:56:00
2:56 AM,37.0,27.0,67,30.05,-9999.0,WNW,4.6,-,N/A,,Clear,290,2012-11-15 10:56:00
3:56 AM,36.0,24.1,62,30.03,-9999.0,Calm,Calm,-,N/A,,Clear,0,2012-11-15 11:56:00
4:56 AM,34.0,26.1,73,30.04,-9999.0,SW,5.8,-,N/A,,Clear,220,2012-11-15 12:56:00
5:56 AM,35.1,25.0,67,30.04,-9999.0,SW,3.5,-,N/A,,Clear,230,2012-11-15 13:56:00
6:56 AM,34.0,26.1,73,30.04,-9999.0,SW,4.6,-,N/A,,Clear,220,2012-11-15 14:56:00
7:16 AM,37.4,26.6,65,30.04,10.0,Calm,Calm,-,N/A,,Mostly Cloudy,0,2012-11-15 15:16:00
7:56 AM,43.0,28.9,58,30.06,5.0,SSE,3.5,-,N/A,,Haze,160,2012-11-15 15:56:00
8:56 AM,48.9,34.0,56,30.06,6.0,ENE,5.8,-,N/A,,Haze,70,2012-11-15 16:56:00
9:56 AM,57.0,35.1,44,30.06,6.0,ESE,4.6,-,N/A,,Haze,110,2012-11-15 17:56:00
10:56 AM,62.1,37.9,41,30.05,6.0,SE,4.6,-,N/A,,Haze,140,2012-11-15 18:56:00
11:56 AM,64.9,37.0,36,30.02,5.0,SE,3.5,-,N/A,,Haze,140,2012-11-15 19:56:00
12:56 PM,66.0,36.0,33,30.00,5.0,SSE,4.6,-,N/A,,Haze,160,2012-11-15 20:56:00
1:56 PM,68.0,36.0,31,30.00,5.0,SE,6.9,-,N/A,,Haze,140,2012-11-15 21:56:00
2:56 PM,66.0,37.9,36,30.01,5.0,SSE,13.8,-,N/A,,Haze,160,2012-11-15 22:56:00
3:56 PM,64.0,37.0,37,30.01,6.0,SE,12.7,-,N/A,,Haze,130,2012-11-15 23:56:00
4:56 PM,61.0,41.0,48,30.02,6.0,SSE,6.9,-,0.00,Rain,Light Rain,160,2012-11-16 00:56:00
5:56 PM,60.1,43.0,53,30.03,6.0,SSE,8.1,-,0.00,Rain,Light Rain,160,2012-11-16 01:56:00
6:18 PM,59.0,44.6,59,30.02,6.0,North,3.5,-,0.00,,Haze,350,2012-11-16 02:18:00
6:35 PM,57.2,46.4,67,30.00,6.0,North,5.8,-,0.00,Rain,Light Rain,10,2012-11-16 02:35:00
6:45 PM,55.4,46.4,72,30.00,6.0,ENE,3.5,-,0.00,,Haze,70,2012-11-16 02:45:00
6:56 PM,55.9,45.0,67,30.01,6.0,SSE,6.9,-,0.00,,Haze,150,2012-11-16 02:56:00
7:56 PM,55.9,43.0,62,30.02,6.0,SSE,5.8,-,N/A,,Haze,160,2012-11-16 03:56:00
8:56 PM,55.0,42.1,62,30.04,6.0,South,3.5,-,N/A,,Haze,170,2012-11-16 04:56:00
9:56 PM,52.0,41.0,66,30.02,7.0,SW,6.9,-,N/A,,Mostly Cloudy,220,2012-11-16 05:56:00
10:56 PM,53.1,37.9,57,30.01,7.0,SSW,3.5,-,N/A,,Mostly Cloudy,210,2012-11-16 06:56:00
11:56 PM,51.1,36.0,56,30.02,7.0,SW,8.1,-,N/A,,Overcast,230,2012-11-16 07:56:00